Starlink 1545

operational
NORAD ID: 46156 Int'l Des: 2020-057 Owner: SPXS Country: US Constellation: starlink
LEOCIRCULARSTARLINK_TYPE

关于 Starlink 1545

正在加载描述...

实时位置

正在加载3D地球...

即将过境

高度历史

Altitude vs Time

uPlot chart will show altitude changes over time

两行轨道根数

1 46156U 20057AR 25352.09798960 .00067582 00000-0 15917-2 0 9994
2 46156 53.0545 290.5923 0014001 70.2830 289.9683 15.41241181295472
Epoch: Dec 18, 2025 • Age: 10 hours

当前状态

高度 456.3 km
速度 7.63 km/s
星下点 -23.88°S, 148.41°W
发射日期 Aug 18, 2020
运行时间 5.3 years
类型 internet

技术详情

分类 Payload
质量 260.00 kg
干质量 248.00 kg
总质量 260.00 kg
长度 0.20 m
直径 2.80 m
跨度 9.00 m
形状 Box + pan
制造商 SPXS
平台类型 Starlink
阶段状态 In Orbit
所有者/国家 SPXS/US

大型星座

Loading constellations...